Blossom, TX

12:06 AM CDT on August 29, 2016 (GMT -0500)
Cox

Weather History for KPRX - November, 2012

Change the Weather History Date:

Thursday, November 8, 2012

  Actual Average Record
Temperature  
Mean Temperature 60 °F -  
Max Temperature 75 °F 62 °F 82 °F (2005)
Min Temperature 44 °F 45 °F 24 °F (2008)
Degree Days  
Heating Degree Days 6    
Growing Degree Days 10 (Base 50)    
Moisture  
Dew Point 42 °F    
Average Humidity 56    
Maximum Humidity 76    
Minimum Humidity 41    
Precipitation  
Precipitation 0.00 in - - ()
Sea Level Pressure  
Sea Level Pressure 30.10 in    
Wind  
Wind Speed 11 mph (SE)    
Max Wind Speed 17 mph    
Max Gust Speed 25 mph    
Visibility 10 miles    
Events      
Averages and records for this station are not official NWS values.
T = Trace of Precipitation, MM = Missing Value Source: NWS Daily Summary

Daily Weather History Graph

Daily Weather History Graph

Search for Another Location

Airport or City:

Trip Planner

Search our weather history database for the weather conditions in past years. The results will help you decide how hot, cold, wet, or windy it might be!

Date:

Astronomy

Nov. 08, 2012 Rise Set
Actual Time 6:47 AM CST 5:23 PM CST
Civil Twilight 6:21 AM CST 5:49 PM CST
Nautical Twilight 5:51 AM CST 6:19 PM CST
Astronomical Twilight 5:22 AM CST 6:48 PM CST
Moon 1:00 AM CST (11/8) 1:50 PM CST (11/8)
Length of Visible Light 11h 27m
Length of Day
10h 35m
Waning Crescent, 32% of the Moon is Illuminated
Nov 8
Waning Crescent
Nov 13
New
Nov 20
First Quarter
Nov 28
Full
Dec 6
Last Quarter

Hourly Weather History & Observations

Time (CST) Temp. Windchill Dew Point Humidity Pressure Visibility Wind Dir Wind Speed Gust Speed Precip Events Conditions
12:15 AM 46.4 °F 44.3 °F 33.8 °F 62% 30.13 in 10.0 mi SE 4.6 mph - N/A   Clear
12:35 AM 46.4 °F 42.4 °F 33.8 °F 62% 30.13 in 10.0 mi ESE 8.1 mph - N/A   Clear
12:55 AM 44.6 °F 40.2 °F 33.8 °F 66% 30.13 in 10.0 mi East 8.1 mph - N/A   Clear
1:15 AM 44.6 °F 40.2 °F 35.6 °F 71% 30.13 in 10.0 mi East 8.1 mph - N/A   Clear
1:35 AM 44.6 °F 39.7 °F 35.6 °F 71% 30.13 in 10.0 mi ESE 9.2 mph - N/A   Clear
1:55 AM 46.4 °F 42.4 °F 35.6 °F 66% 30.13 in 10.0 mi ESE 8.1 mph - N/A   Clear
2:15 AM 44.6 °F 39.7 °F 35.6 °F 71% 30.13 in 10.0 mi East 9.2 mph - N/A   Clear
2:35 AM 46.4 °F 41.5 °F 35.6 °F 66% 30.13 in 1.8 mi East 10.4 mph - N/A   Clear
2:55 AM 46.4 °F 41.9 °F 33.8 °F 62% 30.13 in 10.0 mi ESE 9.2 mph - N/A   Clear
3:15 AM 46.4 °F 41.9 °F 33.8 °F 62% 30.13 in 10.0 mi East 9.2 mph - N/A   Clear
3:35 AM 46.4 °F 41.5 °F 33.8 °F 62% 30.13 in 10.0 mi East 10.4 mph - N/A   Clear
3:55 AM 46.4 °F 41.5 °F 33.8 °F 62% 30.13 in 10.0 mi East 10.4 mph - N/A   Clear
4:15 AM 46.4 °F 41.5 °F 33.8 °F 62% 30.14 in 10.0 mi East 10.4 mph - N/A   Clear
4:35 AM 46.4 °F 41.1 °F 33.8 °F 62% 30.14 in 10.0 mi East 11.5 mph - N/A   Clear
4:55 AM 46.4 °F 41.5 °F 35.6 °F 66% 30.15 in 10.0 mi East 10.4 mph - N/A   Clear
5:15 AM 46.4 °F 41.1 °F 35.6 °F 66% 30.14 in 10.0 mi East 11.5 mph - N/A   Clear
5:35 AM 44.6 °F 38.8 °F 35.6 °F 71% 30.14 in 10.0 mi East 11.5 mph - N/A   Clear
5:55 AM 44.6 °F 38.8 °F 35.6 °F 71% 30.16 in 10.0 mi ESE 11.5 mph - N/A   Clear
6:15 AM 44.6 °F 39.2 °F 35.6 °F 71% 30.16 in 10.0 mi East 10.4 mph - N/A   Clear
6:35 AM 44.6 °F 39.2 °F 35.6 °F 71% 30.16 in 10.0 mi East 10.4 mph - N/A   Clear
6:55 AM 44.6 °F 39.2 °F 35.6 °F 71% 30.17 in 10.0 mi East 10.4 mph - N/A   Clear
7:15 AM 44.6 °F 39.2 °F 37.4 °F 76% 30.18 in 10.0 mi ESE 10.4 mph - N/A   Clear
7:35 AM 46.4 °F 41.5 °F 37.4 °F 71% 30.19 in 10.0 mi ESE 10.4 mph - N/A   Clear
7:55 AM 46.4 °F 41.5 °F 39.2 °F 76% 30.20 in 10.0 mi SE 10.4 mph - N/A   Clear
8:15 AM 48.2 °F - 39.2 °F 71% 30.20 in 10.0 mi SE 13.8 mph - N/A   Clear
8:35 AM 51.8 °F - 39.2 °F 62% 30.20 in 10.0 mi SE 12.7 mph - N/A   Clear
8:55 AM 53.6 °F - 39.2 °F 58% 30.20 in 10.0 mi SE 13.8 mph - N/A   Clear
9:15 AM 55.4 °F - 39.2 °F 54% 30.20 in 10.0 mi SE 16.1 mph - N/A   Clear
9:35 AM 57.2 °F - 39.2 °F 51% 30.19 in 10.0 mi SE 13.8 mph - N/A   Clear
9:55 AM 57.2 °F - 39.2 °F 51% 30.19 in 10.0 mi SE 16.1 mph - N/A   Clear
10:15 AM 60.8 °F - 41.0 °F 48% 30.19 in 10.0 mi SE 12.7 mph - N/A   Clear
10:35 AM 62.6 °F - 41.0 °F 45% 30.18 in 10.0 mi SE 15.0 mph - N/A   Clear
10:55 AM 64.4 °F - 41.0 °F 42% 30.17 in 10.0 mi SE 13.8 mph 18.4 mph N/A   Clear
11:15 AM 64.4 °F - 42.8 °F 45% 30.16 in 10.0 mi SE 15.0 mph 20.7 mph N/A   Clear
11:35 AM 66.2 °F - 42.8 °F 43% 30.15 in 10.0 mi SE 15.0 mph - N/A   Clear
11:55 AM 68.0 °F - 44.6 °F 43% 30.13 in 10.0 mi SSE 13.8 mph 20.7 mph N/A   Clear
12:15 PM 69.8 °F - 46.4 °F 43% 30.12 in 10.0 mi South 12.7 mph 24.2 mph N/A   Clear
12:35 PM 69.8 °F - 46.4 °F 43% 30.10 in 10.0 mi SSE 16.1 mph 21.9 mph N/A   Clear
12:55 PM 71.6 °F - 48.2 °F 43% 30.09 in 10.0 mi SSE 12.7 mph 20.7 mph N/A   Clear
1:15 PM 71.6 °F - 48.2 °F 43% 30.08 in 10.0 mi SSE 15.0 mph - N/A   Clear
1:35 PM 73.4 °F - 48.2 °F 41% 30.07 in 10.0 mi SE 15.0 mph 19.6 mph N/A   Clear
1:55 PM 73.4 °F - 48.2 °F 41% 30.06 in 10.0 mi SSE 17.3 mph 20.7 mph N/A   Clear
2:15 PM 73.4 °F - 50.0 °F 44% 30.05 in 10.0 mi SSE 15.0 mph 21.9 mph N/A   Clear
2:35 PM 75.2 °F - 50.0 °F 41% 30.05 in 10.0 mi SSE 15.0 mph 23.0 mph N/A   Clear
2:55 PM 75.2 °F - 50.0 °F 41% 30.04 in 10.0 mi South 12.7 mph 23.0 mph N/A   Clear
3:15 PM 75.2 °F - 50.0 °F 41% 30.04 in 10.0 mi SSE 17.3 mph 25.3 mph N/A   Clear
3:35 PM 73.4 °F - 48.2 °F 41% 30.04 in 10.0 mi SSE 13.8 mph 23.0 mph N/A   Clear
3:55 PM 73.4 °F - 48.2 °F 41% 30.04 in 10.0 mi SSE 15.0 mph - N/A   Clear
4:15 PM 73.4 °F - 48.2 °F 41% 30.03 in 10.0 mi SSE 16.1 mph - N/A   Clear
4:35 PM 71.6 °F - 48.2 °F 43% 30.03 in 10.0 mi SE 13.8 mph - N/A   Clear
4:55 PM 69.8 °F - 48.2 °F 46% 30.03 in 10.0 mi SE 12.7 mph - N/A   Clear
5:15 PM 68.0 °F - 46.4 °F 46% 30.03 in 10.0 mi SE 11.5 mph - N/A   Clear
5:35 PM 66.2 °F - 46.4 °F 49% 30.04 in 10.0 mi SE 11.5 mph - N/A   Clear
5:55 PM 66.2 °F - 46.4 °F 49% 30.04 in 10.0 mi SE 12.7 mph - N/A   Clear
6:15 PM 64.4 °F - 46.4 °F 52% 30.05 in 10.0 mi SE 13.8 mph - N/A   Clear
6:35 PM 64.4 °F - 46.4 °F 52% 30.05 in 10.0 mi SE 12.7 mph - N/A   Clear
6:55 PM 64.4 °F - 46.4 °F 52% 30.05 in 10.0 mi SE 13.8 mph - N/A   Clear
7:15 PM 64.4 °F - 46.4 °F 52% 30.05 in 10.0 mi SE 15.0 mph - N/A   Clear
7:35 PM 64.4 °F - 46.4 °F 52% 30.05 in 10.0 mi SE 13.8 mph - N/A   Clear
7:55 PM 62.6 °F - 46.4 °F 55% 30.05 in 10.0 mi SE 13.8 mph - N/A   Clear
8:15 PM 62.6 °F - 46.4 °F 55% 30.05 in 10.0 mi SE 13.8 mph - N/A   Clear
8:35 PM 62.6 °F - 46.4 °F 55% 30.05 in 10.0 mi SE 12.7 mph - N/A   Clear
8:55 PM 62.6 °F - 46.4 °F 55% 30.05 in 10.0 mi SE 13.8 mph 20.7 mph N/A   Clear
9:15 PM 62.6 °F - 46.4 °F 55% 30.05 in 10.0 mi SE 13.8 mph - N/A   Clear
9:35 PM 60.8 °F - 46.4 °F 59% 30.05 in 10.0 mi SE 12.7 mph - N/A   Clear
9:55 PM 60.8 °F - 46.4 °F 59% 30.05 in 10.0 mi SE 12.7 mph - N/A   Clear
10:15 PM 60.8 °F - 46.4 °F 59% 30.05 in 10.0 mi SE 12.7 mph - N/A   Clear
10:35 PM 60.8 °F - 46.4 °F 59% 30.05 in 10.0 mi SE 10.4 mph - N/A   Clear
10:55 PM 60.8 °F - 46.4 °F 59% 30.05 in 10.0 mi SE 10.4 mph - N/A   Clear
11:15 PM 59.0 °F - 46.4 °F 63% 30.05 in 10.0 mi SE 10.4 mph - N/A   Clear
11:35 PM 57.2 °F - 46.4 °F 67% 30.05 in 10.0 mi SE 8.1 mph - N/A   Clear
11:55 PM 57.2 °F - 46.4 °F 67% 30.04 in 10.0 mi SE 9.2 mph - N/A   Clear